Location: Milevsko
(49.4500°N, 14.3670°E)
Time: 09:32:42
(UTC+02:00)

ISS - Pass Details

Date: 15 July 2018
Orbit: 402 x 408 km, 51.6° (Epoch: 17 July)

Event Time Altitude Azimuth Distance (km) Brightness Sun altitude
Exits shadow 01:49:53 65° 232° (SW) 452 -3.9 -18.4°
Maximum altitude 01:50:18 82° 161° (SSE) 415 -4.0 -18.4°
Drops below altitude 10° 01:53:36 10° 72° (ENE) 1,471 -0.6 -18.3°
Sets 01:55:42 0° 72° (ENE) 2,334 0.4 -18.2°
